Time,TemperatureF,DewpointF,PressureIn,WindDirection,WindDirectionDegrees,WindSpeedMPH,WindSpeedGustMPH,Humidity,HourlyPrecipIn,Conditions,Clouds,dailyrainin,SoftwareType,DateUTC
2013-02-13 00:01:00,36.0,29.0,29.72,NW,309,2.0,16.0,77,0.00,,,0.00,,2013-02-13 05:01:00,
2013-02-13 00:11:00,36.0,29.0,29.73,West,263,2.0,9.0,75,0.00,,,0.00,,2013-02-13 05:11:00,
2013-02-13 00:22:00,36.0,29.0,29.73,West,263,2.0,9.0,75,0.00,,,0.00,,2013-02-13 05:22:00,
2013-02-13 00:32:00,36.0,29.0,29.73,WNW,299,5.0,8.0,75,0.00,,,0.00,,2013-02-13 05:32:00,
2013-02-13 00:42:00,36.0,29.0,29.73,WNW,299,5.0,8.0,75,0.00,,,0.00,,2013-02-13 05:42:00,
2013-02-13 00:52:00,36.0,29.0,29.73,WSW,253,5.0,12.0,75,0.00,,,0.00,,2013-02-13 05:52:00,
2013-02-13 01:02:00,36.0,29.0,29.73,WNW,291,4.0,11.0,75,0.00,,,0.00,,2013-02-13 06:02:00,
2013-02-13 01:11:00,36.0,29.0,29.73,WNW,295,3.0,8.0,75,0.00,,,0.00,,2013-02-13 06:11:00,
2013-02-13 01:21:00,36.0,29.0,29.73,WNW,295,3.0,8.0,75,0.00,,,0.00,,2013-02-13 06:21:00,
2013-02-13 01:32:00,36.0,29.0,29.74,West,275,2.0,10.0,74,0.00,,,0.00,,2013-02-13 06:32:00,
2013-02-13 01:42:00,36.0,29.0,29.73,WNW,294,5.0,13.0,74,0.00,,,0.00,,2013-02-13 06:42:00,
2013-02-13 01:51:00,36.0,29.0,29.73,WNW,294,5.0,13.0,74,0.00,,,0.00,,2013-02-13 06:51:00,
2013-02-13 02:02:00,36.0,29.0,29.73,WNW,282,2.0,9.0,75,0.00,,,0.00,,2013-02-13 07:02:00,
2013-02-13 02:11:00,35.0,28.0,29.73,WNW,291,4.0,8.0,76,0.00,,,0.00,,2013-02-13 07:11:00,
2013-02-13 02:22:00,35.0,28.0,29.73,WNW,291,4.0,8.0,76,0.00,,,0.00,,2013-02-13 07:22:00,
2013-02-13 02:32:00,35.0,28.0,29.72,West,280,3.0,10.0,76,0.00,,,0.00,,2013-02-13 07:32:00,
2013-02-13 02:42:00,35.0,28.0,29.72,West,277,1.0,3.0,76,0.00,,,0.00,,2013-02-13 07:42:00,
2013-02-13 02:52:00,35.0,28.0,29.72,West,277,1.0,3.0,76,0.00,,,0.00,,2013-02-13 07:52:00,
2013-02-13 03:01:00,34.0,27.0,29.72,WNW,289,1.0,6.0,76,0.00,,,0.00,,2013-02-13 08:01:00,
2013-02-13 03:11:00,34.0,28.0,29.73,West,272,2.0,4.0,77,0.00,,,0.00,,2013-02-13 08:11:00,
2013-02-13 03:21:00,34.0,28.0,29.73,West,272,2.0,4.0,77,0.00,,,0.00,,2013-02-13 08:21:00,
2013-02-13 03:32:00,33.0,27.0,29.73,West,271,1.0,5.0,78,0.00,,,0.00,,2013-02-13 08:32:00,
2013-02-13 03:43:00,33.0,27.0,29.73,West,271,1.0,5.0,78,0.00,,,0.00,,2013-02-13 08:43:00,
2013-02-13 03:52:00,33.0,27.0,29.74,West,271,1.0,5.0,79,0.00,,,0.00,,2013-02-13 08:52:00,
2013-02-13 04:01:00,33.0,28.0,29.74,West,267,1.0,7.0,80,0.00,,,0.00,,2013-02-13 09:01:00,
2013-02-13 04:11:00,33.0,28.0,29.74,West,267,1.0,7.0,80,0.00,,,0.00,,2013-02-13 09:11:00,
2013-02-13 04:21:00,32.0,27.0,29.75,West,272,2.0,4.0,80,0.00,,,0.00,,2013-02-13 09:21:00,
2013-02-13 04:31:00,32.0,26.0,29.76,West,272,1.0,6.0,79,0.00,,,0.00,,2013-02-13 09:31:00,
2013-02-13 04:42:00,32.0,26.0,29.76,West,272,0.0,4.0,79,0.00,,,0.00,,2013-02-13 09:42:00,
2013-02-13 04:52:00,32.0,26.0,29.76,West,272,0.0,4.0,79,0.00,,,0.00,,2013-02-13 09:52:00,
2013-02-13 05:01:00,32.0,26.0,29.77,West,272,2.0,5.0,79,0.00,,,0.00,,2013-02-13 10:01:00,
2013-02-13 05:11:00,32.0,26.0,29.77,West,264,3.0,7.0,79,0.00,,,0.00,,2013-02-13 10:11:00,
2013-02-13 05:21:00,32.0,26.0,29.77,West,264,3.0,7.0,79,0.00,,,0.00,,2013-02-13 10:21:00,
2013-02-13 05:32:00,32.0,26.0,29.77,West,280,1.0,6.0,77,0.00,,,0.00,,2013-02-13 10:32:00,
2013-02-13 05:42:00,32.0,26.0,29.78,West,260,2.0,6.0,77,0.00,,,0.00,,2013-02-13 10:42:00,
2013-02-13 05:51:00,32.0,26.0,29.78,West,260,2.0,6.0,77,0.00,,,0.00,,2013-02-13 10:51:00,
2013-02-13 06:01:00,32.0,26.0,29.78,West,275,2.0,6.0,77,0.00,,,0.00,,2013-02-13 11:01:00,
2013-02-13 06:11:00,32.0,26.0,29.77,West,261,1.0,7.0,77,0.00,,,0.00,,2013-02-13 11:11:00,
2013-02-13 06:22:00,32.0,26.0,29.77,West,261,1.0,7.0,77,0.00,,,0.00,,2013-02-13 11:22:00,
2013-02-13 06:32:00,31.0,25.0,29.77,West,260,1.0,6.0,77,0.00,,,0.00,,2013-02-13 11:32:00,
2013-02-13 06:42:00,31.0,25.0,29.78,West,268,1.0,6.0,78,0.00,,,0.00,,2013-02-13 11:42:00,
2013-02-13 06:52:00,31.0,25.0,29.78,West,268,1.0,6.0,78,0.00,,,0.00,,2013-02-13 11:52:00,
2013-02-13 07:02:00,30.0,24.0,29.77,West,267,0.0,5.0,79,0.00,,,0.00,,2013-02-13 12:02:00,
2013-02-13 07:11:00,30.0,25.0,29.77,West,272,0.0,3.0,80,0.00,,,0.00,,2013-02-13 12:11:00,
2013-02-13 07:22:00,30.0,25.0,29.77,West,272,0.0,3.0,80,0.00,,,0.00,,2013-02-13 12:22:00,
2013-02-13 07:32:00,31.0,25.0,29.78,WNW,284,0.0,7.0,79,0.00,,,0.00,,2013-02-13 12:32:00,
2013-02-13 07:42:00,31.0,25.0,29.79,West,274,1.0,5.0,78,0.00,,,0.00,,2013-02-13 12:42:00,
2013-02-13 07:52:00,31.0,25.0,29.79,West,274,1.0,5.0,78,0.00,,,0.00,,2013-02-13 12:52:00,
2013-02-13 08:02:00,33.0,26.0,29.79,West,275,2.0,5.0,75,0.00,,,0.00,,2013-02-13 13:02:00,
2013-02-13 08:11:00,34.0,27.0,29.78,West,275,2.0,5.0,74,0.00,,,0.00,,2013-02-13 13:11:00,
2013-02-13 08:21:00,34.0,27.0,29.78,West,275,2.0,5.0,74,0.00,,,0.00,,2013-02-13 13:21:00,
2013-02-13 08:32:00,35.0,27.0,29.78,West,281,2.0,6.0,72,0.00,,,0.00,,2013-02-13 13:32:00,
2013-02-13 08:42:00,35.0,26.0,29.78,WNW,292,1.0,6.0,70,0.00,,,0.00,,2013-02-13 13:42:00,
2013-02-13 08:52:00,35.0,26.0,29.78,WNW,292,1.0,6.0,70,0.00,,,0.00,,2013-02-13 13:52:00,
2013-02-13 09:01:00,36.0,27.0,29.78,WNW,289,0.0,6.0,69,0.00,,,0.00,,2013-02-13 14:01:00,
2013-02-13 09:11:00,37.0,28.0,29.78,NW,308,0.0,5.0,69,0.00,,,0.00,,2013-02-13 14:11:00,
2013-02-13 09:21:00,37.0,28.0,29.78,NW,308,0.0,5.0,69,0.00,,,0.00,,2013-02-13 14:21:00,
2013-02-13 09:32:00,37.0,27.0,29.78,WNW,294,3.0,10.0,67,0.00,,,0.00,,2013-02-13 14:32:00,
2013-02-13 09:42:00,38.0,27.0,29.78,West,281,1.0,8.0,65,0.00,,,0.00,,2013-02-13 14:42:00,
2013-02-13 09:52:00,38.0,27.0,29.78,West,281,1.0,8.0,65,0.00,,,0.00,,2013-02-13 14:52:00,
2013-02-13 10:02:00,38.0,27.0,29.78,WNW,302,1.0,7.0,65,0.00,,,0.00,,2013-02-13 15:02:00,
2013-02-13 10:11:00,39.0,27.0,29.78,WNW,301,3.0,6.0,62,0.00,,,0.00,,2013-02-13 15:11:00,
2013-02-13 10:21:00,39.0,27.0,29.78,WNW,301,3.0,6.0,62,0.00,,,0.00,,2013-02-13 15:21:00,
2013-02-13 10:32:00,40.0,27.0,29.77,NNW,342,3.0,7.0,60,0.00,,,0.00,,2013-02-13 15:32:00,
2013-02-13 10:42:00,40.0,27.0,29.77,NNW,342,3.0,7.0,60,0.00,,,0.00,,2013-02-13 15:42:00,
2013-02-13 10:52:00,40.0,27.0,29.76,North,360,4.0,8.0,60,0.00,,,0.00,,2013-02-13 15:52:00,
2013-02-13 11:01:00,39.0,26.0,29.76,NNE,16,5.0,10.0,60,0.00,,,0.00,,2013-02-13 16:01:00,
2013-02-13 11:11:00,40.0,27.0,29.76,NNE,17,1.0,7.0,60,0.00,,,0.00,,2013-02-13 16:11:00,
2013-02-13 11:21:00,40.0,27.0,29.76,NNE,17,1.0,7.0,60,0.00,,,0.00,,2013-02-13 16:21:00,
2013-02-13 11:32:00,40.0,27.0,29.75,NW,309,3.0,12.0,60,0.00,,,0.00,,2013-02-13 16:32:00,
2013-02-13 11:42:00,40.0,27.0,29.75,NW,309,3.0,12.0,60,0.00,,,0.00,,2013-02-13 16:42:00,
2013-02-13 11:52:00,41.0,27.0,29.74,NNE,31,2.0,8.0,58,0.00,,,0.00,,2013-02-13 16:52:00,
2013-02-13 12:01:00,41.0,27.0,29.74,NNE,31,4.0,6.0,58,0.00,,,0.00,,2013-02-13 17:01:00,
2013-02-13 12:11:00,41.0,27.0,29.74,NNE,25,1.0,7.0,57,0.00,,,0.00,,2013-02-13 17:11:00,
2013-02-13 12:21:00,41.0,27.0,29.74,NNE,25,1.0,7.0,57,0.00,,,0.00,,2013-02-13 17:21:00,
2013-02-13 12:32:00,40.0,26.0,29.74,NNW,335,3.0,7.0,58,0.00,,,0.00,,2013-02-13 17:32:00,
2013-02-13 12:42:00,40.0,26.0,29.74,NNW,335,3.0,7.0,58,0.00,,,0.00,,2013-02-13 17:42:00,
2013-02-13 12:52:00,40.0,27.0,29.74,NE,51,5.0,7.0,60,0.00,,,0.00,,2013-02-13 17:52:00,
2013-02-13 13:02:00,41.0,27.0,29.74,NE,37,2.0,6.0,56,0.00,,,0.00,,2013-02-13 18:02:00,
2013-02-13 13:11:00,42.0,27.0,29.74,North,6,5.0,11.0,54,0.00,,,0.00,,2013-02-13 18:11:00,
2013-02-13 13:23:00,42.0,27.0,29.74,North,6,5.0,11.0,54,0.00,,,0.00,,2013-02-13 18:23:00,
2013-02-13 13:32:00,41.0,26.0,29.73,NNE,20,4.0,8.0,55,0.00,,,0.00,,2013-02-13 18:32:00,
2013-02-13 13:42:00,41.0,26.0,29.73,NNE,20,4.0,8.0,55,0.00,,,0.00,,2013-02-13 18:42:00,
2013-02-13 13:52:00,41.0,27.0,29.73,NNE,20,2.0,7.0,58,0.00,,,0.00,,2013-02-13 18:52:00,
2013-02-13 14:01:00,42.0,27.0,29.72,NNE,14,2.0,6.0,54,0.00,,,0.00,,2013-02-13 19:01:00,
2013-02-13 14:11:00,41.0,26.0,29.72,NE,38,2.0,5.0,55,0.00,,,0.00,,2013-02-13 19:11:00,
2013-02-13 14:21:00,41.0,26.0,29.72,NE,38,2.0,5.0,55,0.00,,,0.00,,2013-02-13 19:21:00,
2013-02-13 14:32:00,41.0,29.0,29.71,SW,217,2.0,7.0,63,0.00,,,0.00,,2013-02-13 19:32:00,
2013-02-13 14:42:00,41.0,29.0,29.71,SW,217,2.0,7.0,63,0.00,,,0.00,,2013-02-13 19:42:00,
2013-02-13 14:52:00,42.0,30.0,29.71,SW,215,1.0,4.0,62,0.00,,,0.00,,2013-02-13 19:52:00,
2013-02-13 15:02:00,41.0,28.0,29.71,SSW,196,3.0,7.0,59,0.00,,,0.00,,2013-02-13 20:02:00,
2013-02-13 15:11:00,41.0,28.0,29.70,SW,236,1.0,3.0,60,0.00,,,0.00,,2013-02-13 20:11:00,
2013-02-13 15:21:00,41.0,28.0,29.70,SW,236,1.0,3.0,60,0.00,,,0.00,,2013-02-13 20:21:00,
2013-02-13 15:32:00,41.0,27.0,29.70,NNE,27,2.0,6.0,58,0.00,,,0.00,,2013-02-13 20:32:00,
2013-02-13 15:42:00,41.0,27.0,29.69,NNE,30,0.0,3.0,57,0.00,,,0.00,,2013-02-13 20:42:00,
2013-02-13 15:52:00,41.0,27.0,29.69,NNE,30,0.0,3.0,57,0.00,,,0.00,,2013-02-13 20:52:00,
2013-02-13 16:01:00,41.0,28.0,29.69,NNE,31,2.0,3.0,59,0.00,,,0.00,,2013-02-13 21:01:00,
2013-02-13 16:11:00,41.0,28.0,29.69,NNE,31,2.0,3.0,59,0.00,,,0.00,,2013-02-13 21:11:00,
2013-02-13 16:21:00,40.0,27.0,29.68,NE,34,1.0,2.0,60,0.00,,,0.00,,2013-02-13 21:21:00,
2013-02-13 16:31:00,40.0,28.0,29.67,NE,34,2.0,3.0,63,0.00,,,0.00,,2013-02-13 21:31:00,
2013-02-13 16:42:00,39.0,27.0,29.67,NE,49,0.0,5.0,62,0.00,,,0.00,,2013-02-13 21:42:00,
2013-02-13 16:52:00,39.0,27.0,29.67,NE,49,0.0,5.0,62,0.00,,,0.00,,2013-02-13 21:52:00,
2013-02-13 17:02:00,39.0,28.0,29.67,NE,51,1.0,3.0,64,0.00,,,0.00,,2013-02-13 22:02:00,
2013-02-13 17:11:00,38.0,27.0,29.68,ENE,61,0.0,2.0,65,0.00,,,0.00,,2013-02-13 22:11:00,
2013-02-13 17:21:00,38.0,27.0,29.68,ENE,61,0.0,2.0,65,0.00,,,0.00,,2013-02-13 22:21:00,
2013-02-13 17:32:00,38.0,28.0,29.68,ENE,61,0.0,0.0,68,0.00,,,0.00,,2013-02-13 22:32:00,
2013-02-13 17:42:00,38.0,28.0,29.68,ENE,61,0.0,0.0,68,0.00,,,0.00,,2013-02-13 22:42:00,
2013-02-13 17:52:00,37.0,27.0,29.68,ENE,61,0.0,2.0,68,0.00,,,0.00,,2013-02-13 22:52:00,
2013-02-13 18:01:00,37.0,29.0,29.68,ENE,62,1.0,3.0,72,0.00,,,0.00,,2013-02-13 23:01:00,
2013-02-13 18:11:00,37.0,29.0,29.68,ENE,62,1.0,2.0,72,0.00,,,0.00,,2013-02-13 23:11:00,
2013-02-13 18:21:00,37.0,29.0,29.68,ENE,62,1.0,2.0,72,0.00,,,0.00,,2013-02-13 23:21:00,
2013-02-13 18:32:00,36.0,29.0,29.68,ENE,64,0.0,2.0,76,0.00,,,0.00,,2013-02-13 23:32:00,
2013-02-13 18:42:00,36.0,29.0,29.68,ENE,64,0.0,2.0,76,0.00,,,0.00,,2013-02-13 23:42:00,
2013-02-13 18:52:00,36.0,29.0,29.68,ENE,64,0.0,1.0,77,0.00,,,0.00,,2013-02-13 23:52:00,
2013-02-13 19:02:00,36.0,30.0,29.68,ENE,64,0.0,0.0,78,0.00,,,0.00,,2013-02-14 00:02:00,
2013-02-13 19:11:00,36.0,30.0,29.68,ENE,64,0.0,0.0,78,0.00,,,0.00,,2013-02-14 00:11:00,
2013-02-13 19:22:00,36.0,30.0,29.68,ENE,64,0.0,0.0,79,0.00,,,0.00,,2013-02-14 00:22:00,
2013-02-13 19:32:00,35.0,29.0,29.68,ENE,64,0.0,0.0,80,0.00,,,0.00,,2013-02-14 00:32:00,
2013-02-13 19:42:00,35.0,29.0,29.68,ENE,64,0.0,0.0,80,0.00,,,0.00,,2013-02-14 00:42:00,
2013-02-13 19:52:00,35.0,30.0,29.67,ENE,64,0.0,0.0,81,0.00,,,0.00,,2013-02-14 00:52:00,
2013-02-13 20:01:00,34.0,29.0,29.68,ENE,64,0.0,1.0,81,0.00,,,0.00,,2013-02-14 01:01:00,
2013-02-13 20:11:00,34.0,29.0,29.68,ENE,64,0.0,0.0,82,0.00,,,0.00,,2013-02-14 01:11:00,
2013-02-13 20:21:00,34.0,29.0,29.68,ENE,64,0.0,0.0,82,0.00,,,0.00,,2013-02-14 01:21:00,
2013-02-13 20:32:00,33.0,29.0,29.67,ENE,64,0.0,0.0,85,0.00,,,0.00,,2013-02-14 01:32:00,
2013-02-13 20:41:00,33.0,29.0,29.67,ENE,64,0.0,0.0,85,0.00,,,0.00,,2013-02-14 01:41:00,
2013-02-13 20:51:00,33.0,29.0,29.67,ENE,64,0.0,0.0,86,0.00,,,0.00,,2013-02-14 01:51:00,
2013-02-13 21:02:00,33.0,30.0,29.68,ENE,61,0.0,1.0,87,0.00,,,0.00,,2013-02-14 02:02:00,
2013-02-13 21:11:00,33.0,30.0,29.68,ENE,61,0.0,0.0,89,0.00,,,0.00,,2013-02-14 02:11:00,
2013-02-13 21:21:00,33.0,30.0,29.68,ENE,61,0.0,0.0,89,0.00,,,0.00,,2013-02-14 02:21:00,
2013-02-13 21:31:00,32.0,29.0,29.67,ENE,61,0.0,0.0,90,0.00,,,0.00,,2013-02-14 02:31:00,
2013-02-13 21:41:00,32.0,29.0,29.67,ENE,61,0.0,0.0,90,0.00,,,0.00,,2013-02-14 02:41:00,
2013-02-13 21:52:00,32.0,29.0,29.67,ENE,61,0.0,0.0,90,0.00,,,0.00,,2013-02-14 02:52:00,
2013-02-13 22:02:00,32.0,30.0,29.66,ENE,61,0.0,0.0,91,0.00,,,0.00,,2013-02-14 03:02:00,
2013-02-13 22:11:00,32.0,30.0,29.65,ENE,61,0.0,0.0,91,0.00,,,0.00,,2013-02-14 03:11:00,
2013-02-13 22:22:00,32.0,30.0,29.65,ENE,61,0.0,0.0,91,0.00,,,0.00,,2013-02-14 03:22:00,
2013-02-13 22:32:00,32.0,30.0,29.65,ENE,61,0.0,0.0,92,0.00,,,0.00,,2013-02-14 03:32:00,
2013-02-13 22:42:00,32.0,30.0,29.65,ENE,61,0.0,0.0,92,0.00,,,0.00,,2013-02-14 03:42:00,
2013-02-13 22:51:00,33.0,31.0,29.65,ENE,64,0.0,0.0,93,0.00,,,0.00,,2013-02-14 03:51:00,
2013-02-13 23:01:00,33.0,31.0,29.65,ENE,64,0.0,0.0,94,0.00,,,0.00,,2013-02-14 04:01:00,
2013-02-13 23:12:00,33.0,31.0,29.65,ENE,64,0.0,0.0,94,0.00,,,0.00,,2013-02-14 04:12:00,
2013-02-13 23:21:00,33.0,31.0,29.65,ENE,64,0.0,0.0,94,0.00,,,0.00,,2013-02-14 04:21:00,
2013-02-13 23:32:00,33.0,32.0,29.64,ENE,61,0.0,1.0,95,0.00,,,0.00,,2013-02-14 04:32:00,
2013-02-13 23:42:00,33.0,32.0,29.64,ENE,61,0.0,1.0,95,0.00,,,0.00,,2013-02-14 04:42:00,
2013-02-13 23:51:00,33.0,32.0,29.65,ENE,61,0.0,0.0,96,0.00,,,0.00,,2013-02-14 04:51:00,